Vertical_Velocity
5 4 -8 4 4 -3 4 -7 -1 -7 -3 -5 0 3 -1 3 -4 -2 -1 -1 1 -2 -1 3 4 4 2 -4 -6 -7 0 1 8 5 -1 -4 4 7 2 -5 1 1 14
3 18 -5 3 13 7 5 -1 1 2 -4 -2 -2 5 1 -3 -4 0 2 3 4 -3 -1 2 -0 -2 2 4 1 5 4 -3 -3 -2 -4 -1 5 -6 -6 -3 -1 2 -13
13 1 17 3 -1 8 14 14 -2 1 6 4 1 0 0 -3 4 0 -3 -1 -1 -1 2 1 3 3 1 2 4 1 -2 2 0 -2 3 4 -1 -1 3 4 -2 -4 11
2 8 1 13 6 2 4 6 2 1 -4 -1 -2 -1 -4 1 5 9 4 6 9 -0 -5 -5 1 0 -0 1 -2 -2 1 2 2 3 4 4 3 3 -1 -4 -1 -7 -1
6 -5 4 1 2 0 -1 2 5 3 -0 2 8 -0 0 7 -18 12 13 9 8 5 15 8 13 5 7 -0 2 1 -1 1 0 1 -0 -1 -6 -5 -7 -6 -5 0 3
6 -3 -1 3 -1 -0 -4 -3 4 1 2 2 -4 -1 2 6 1 2 -1 -2 3 -1 2 -18 6 2 7 6 3 -1 -0 -2 -3 -4 -3 -3 -2 -4 0 -2 -0 -0 4
-4 2 1 2 1 -4 -0 0 -3 -6 -8 -4 -1 -6 -6 -6 -10 2 -3 -0 -5 -7 1 3 -2 0 -2 3 13 0 -4 -4 -4 0 3 -0 3 -1 -3 0 1 -2 -0
-2 -1 4 1 4 -0 1 3 0 4 -4 -5 -2 -3 0 4 2 -1 -6 1 2 4 3 1 2 -2 0 0 3 2 -0 9 2 -1 3 6 6 3 -2 -4 -4 -2 2
2 0 4 3 -1 2 2 -1 5 -6 -5 1 -1 3 2 0 0 -9 -6 -2 -6 6 -4 1 2 3 -1 -2 -2 0 0 0 -3 -1 -1 -1 -3 -5 -9 6 -0 -3 2
3 1 7 2 -1 -0 1 -0 -1 -1 -3 -4 5 -0 1 0 2 5 0 -2 -0 3 2 0 -1 -2 1 2 -0 -0 1 1 2 2 -4 0 -1 -0 0 -4 -5 -3 -6
-2 4 4 4 2 2 1 4 -2 -2 -1 0 -2 1 -0 1 -0 2 3 2 -3 -6 -0 1 4 1 -3 3 2 -4 1 -0 0 4 3 -0 -0 -3 -2 -1 -3 -3 -3
1 -0 2 3 -1 -2 -0 -2 -1 -3 0 2 2 -3 -2 5 1 -1 -1 -3 -1 1 3 -1 -3 1 4 -1 1 1 -2 -3 -3 1 3 6 1 5 0 3 3 5 -1
1 1 -2 2 2 -3 -2 2 2 8 2 -1 2 -5 4 -4 -4 -0 -1 -2 -0 2 0 2 -2 -1 0 -1 -1 -0 0 6 2 -2 1 4 1 -0 0 6 4 -3 1
0 1 0 -2 -0 2 -1 3 0 -2 -0 -1 2 -6 1 7 6 -5 -2 -6 2 1 -2 -2 3 -2 5 2 -0 -0 6 0 4 1 -1 -1 -1 -0 -2 -4 0 3 4
2 0 -2 -4 -1 -2 -3 -0 -0 0 -1 1 -7 1 -5 2 -2 1 0 -2 1 1 -0 1 -3 -0 -2 -2 -2 -1 -2 2 -6 1 -1 -4 0 3 -1 -3 -2 -3 -3
-2 6 1 -2 1 1 1 1 2 0 -2 1 -1 -1 1 -9 -0 1 1 -1 -4 3 -5 4 -1 3 1 0 -2 2 -1 1 -1 1 -2 -4 1 -3 0 -1 -5 -1 -3
-2 -0 1 1 1 2 1 1 -1 0 -2 -3 -2 -1 3 -1 -2 1 -2 5 0 -1 -3 -3 4 1 -3 -0 1 2 -1 3 1 -3 -6 1 1 1 0 -4 -5 -3 -0
2 0 -0 -0 -2 -5 -3 0 4 2 -2 -1 -2 0 0 -1 -2 2 2 1 -5 -7 -2 3 0 1 1 1 -0 1 -2 -2 -1 -2 0 2 1 -1 -1 -3 -1 -2 -1
1 0 -1 -3 -1 -1 -5 -3 -7 -6 -2 -1 3 2 1 -3 -1 -1 -3 -3 -2 -2 4 -0 -1 -1 -1 2 2 -1 -1 -1 1 -0 0 2 0 -1 0 -2 -4 -3 -5
1 1 4 2 1 -1 -1 -1 -1 -5 -2 -3 -2 1 -2 -0 -0 0 1 -3 0 -0 0 1 -1 -1 2 0 -2 0 -1 -2 -1 0 -0 -2 -2 -2 -1 -1 -2 -1 -2
3 -1 0 1 1 3 -0 -0 -1 -2 -6 -6 0 1 -1 -3 -4 -1 2 -3 -0 2 2 -1 -2 -4 3 2 -1 -2 -1 2 -1 -2 -3 -1 -1 -1 -2 -4 -3 -4 -6
9 0 -4 5 -0 -3 4 -1 -1 -2 -3 -4 -1 -0 1 0 -2 -2 -0 2 1 -0 5 0 -3 -1 2 -2 -3 -1 0 -5 -1 -0 -1 -1 -3 -4 -4 -4 -4 -5 -5
11 2 -1 -6 1 -5 3 5 -2 -2 -0 -6 -1 -1 -1 1 0 -3 1 1 1 2 3 1 -3 -3 2 -4 -1 3 -3 -3 -1 0 1 -1 -2 -2 -3 -2 -4 -3 -4
6 6 5 8 -6 -4 -5 2 1 1 0 -1 -1 0 -2 1 2 0 -1 -1 -1 1 -0 1 -1 -3 -0 -5 3 1 -4 -2 -2 1 -1 -0 -0 -2 -3 -2 -3 -3 -4
11 11 12 7 -3 5 -2 5 1 0 2 0 -3 -0 -1 -2 -2 -0 1 -0 -0 1 1 -0 1 -2 -1 1 2 -1 0 -0 1 3 -0 -1 -3 -3 -2 -3 -3 -1 -3
1 5 14 13 27 1 9 1 -0 -3 0 -2 4 -2 -0 0 -0 -3 -2 -2 -1 -1 2 2 -1 0 -1 1 -0 1 -2 -1 -0 -1 -1 -3 -2 -1 -1 -3 -3 -4 -5
Height
3221 3222 3224 3227 3228 3230 3232 3232 3234 3236 3237 3237 3238 3241 3242 3241 3241 3241 3243 3244 3245 3247 3247 3249 3249 3249 3249 3250 3250 3250 3251 3249 3248 3249 3248 3248 3247 3243 3240 3238 3237 3235 3236
3215 3216 3219 3221 3224 3226 3227 3230 3233 3233 3235 3235 3237 3238 3239 3240 3240 3240 3240 3241 3242 3242 3244 3245 3245 3245 3245 3246 3245 3244 3245 3244 3244 3243 3243 3242 3240 3235 3234 3234 3232 3231 3232
3212 3214 3215 3218 3219 3222 3223 3225 3226 3230 3232 3233 3234 3234 3236 3236 3238 3238 3239 3238 3239 3240 3240 3241 3241 3241 3240 3240 3239 3239 3239 3240 3238 3237 3238 3237 3234 3231 3231 3229 3230 3229 3227
3209 3212 3212 3212 3214 3217 3220 3220 3221 3222 3225 3227 3229 3230 3232 3232 3233 3234 3235 3234 3234 3236 3237 3238 3238 3238 3238 3237 3235 3235 3235 3235 3235 3234 3233 3232 3230 3229 3228 3227 3228 3227 3227
3206 3210 3210 3209 3206 3208 3213 3215 3217 3218 3219 3220 3221 3224 3226 3229 3226 3229 3231 3231 3230 3232 3234 3234 3235 3234 3235 3234 3234 3233 3233 3232 3231 3231 3230 3228 3227 3226 3226 3226 3225 3225 3224
3205 3206 3206 3205 3205 3208 3210 3209 3211 3212 3211 3213 3215 3217 3220 3222 3225 3225 3227 3228 3230 3228 3229 3225 3229 3230 3230 3230 3230 3230 3229 3228 3228 3227 3227 3226 3225 3224 3224 3223 3221 3220 3220
3203 3204 3204 3203 3204 3205 3206 3207 3207 3207 3208 3207 3209 3211 3212 3214 3217 3222 3222 3224 3224 3225 3226 3227 3226 3227 3226 3226 3226 3226 3225 3225 3224 3224 3224 3224 3223 3221 3220 3219 3218 3216 3215
3199 3200 3200 3200 3201 3203 3204 3204 3204 3204 3203 3204 3204 3204 3207 3211 3214 3216 3219 3220 3220 3221 3221 3222 3222 3222 3222 3222 3222 3221 3221 3220 3219 3219 3219 3219 3217 3216 3214 3213 3212 3211 3211
3192 3194 3195 3196 3198 3200 3201 3201 3202 3201 3201 3201 3202 3203 3204 3206 3210 3212 3214 3215 3216 3217 3215 3217 3217 3217 3216 3216 3216 3216 3216 3215 3214 3214 3213 3213 3211 3209 3208 3209 3208 3207 3207
3186 3189 3191 3191 3193 3195 3195 3196 3197 3198 3198 3199 3200 3201 3202 3202 3204 3206 3207 3209 3210 3211 3212 3212 3211 3211 3210 3209 3209 3209 3209 3209 3209 3208 3208 3207 3205 3205 3204 3202 3202 3200 3199
3182 3183 3185 3185 3187 3189 3190 3191 3192 3193 3196 3196 3197 3198 3198 3199 3200 3201 3200 3200 3204 3206 3207 3207 3206 3204 3204 3203 3202 3202 3203 3202 3200 3200 3201 3200 3199 3199 3197 3196 3194 3193 3192
3175 3178 3178 3180 3180 3182 3183 3185 3187 3188 3190 3191 3192 3193 3195 3195 3195 3194 3193 3195 3198 3200 3201 3200 3199 3199 3199 3198 3197 3197 3197 3196 3194 3193 3193 3193 3192 3191 3190 3190 3188 3186 3184
3170 3171 3173 3174 3174 3176 3178 3181 3183 3182 3183 3185 3186 3186 3190 3189 3190 3189 3188 3190 3193 3194 3194 3194 3193 3194 3193 3192 3192 3192 3192 3191 3190 3189 3188 3187 3186 3184 3184 3183 3181 3180 3178
3165 3166 3169 3169 3170 3172 3173 3174 3175 3177 3177 3178 3180 3180 3183 3185 3184 3183 3183 3185 3188 3188 3188 3187 3187 3188 3187 3186 3185 3185 3184 3184 3182 3181 3179 3179 3178 3177 3174 3173 3173 3172 3170
3161 3163 3165 3166 3167 3168 3169 3170 3170 3171 3172 3173 3175 3175 3177 3178 3178 3179 3178 3179 3180 3181 3181 3181 3180 3181 3179 3178 3177 3178 3176 3175 3174 3173 3171 3171 3170 3169 3166 3164 3163 3162 3160
3158 3160 3160 3161 3162 3163 3165 3166 3166 3166 3166 3168 3169 3169 3170 3171 3172 3172 3173 3172 3173 3172 3173 3174 3173 3173 3172 3171 3170 3170 3168 3166 3166 3164 3162 3163 3162 3161 3158 3156 3155 3154 3152
3155 3156 3156 3157 3157 3159 3160 3161 3161 3161 3161 3161 3162 3163 3162 3164 3164 3165 3165 3164 3164 3163 3163 3165 3165 3163 3163 3162 3162 3160 3158 3158 3157 3156 3156 3155 3154 3152 3150 3148 3147 3145 3143
3150 3150 3151 3152 3152 3152 3154 3154 3154 3154 3154 3154 3155 3155 3155 3155 3155 3155 3155 3154 3155 3154 3155 3154 3154 3154 3155 3154 3154 3152 3151 3150 3150 3149 3149 3147 3146 3143 3141 3140 3138 3135 3132
3142 3143 3144 3144 3144 3144 3144 3144 3144 3145 3145 3146 3146 3146 3146 3146 3146 3146 3146 3145 3146 3146 3147 3146 3146 3147 3146 3146 3146 3145 3144 3144 3143 3142 3140 3138 3136 3134 3132 3129 3127 3124 3121
3135 3136 3137 3136 3136 3137 3137 3136 3136 3135 3134 3136 3136 3137 3137 3137 3137 3137 3138 3138 3138 3138 3138 3139 3139 3139 3139 3140 3139 3138 3137 3136 3135 3133 3131 3129 3126 3124 3121 3119 3116 3113 3110
3127 3127 3128 3129 3129 3129 3129 3129 3128 3128 3127 3126 3128 3130 3131 3129 3130 3131 3131 3132 3131 3132 3132 3132 3133 3132 3133 3133 3132 3131 3129 3128 3127 3125 3123 3120 3118 3115 3112 3109 3106 3102 3098
3115 3115 3117 3120 3120 3121 3122 3121 3121 3121 3121 3120 3120 3122 3124 3124 3123 3123 3124 3126 3126 3126 3127 3126 3125 3125 3126 3125 3124 3123 3122 3120 3118 3117 3114 3112 3109 3106 3103 3099 3096 3091 3087
3105 3105 3105 3106 3110 3111 3114 3114 3114 3115 3115 3113 3114 3115 3116 3118 3117 3117 3117 3118 3119 3120 3119 3119 3118 3118 3118 3117 3116 3115 3114 3112 3110 3108 3106 3103 3100 3097 3094 3090 3086 3081 3076
3094 3096 3096 3096 3097 3102 3103 3105 3106 3107 3108 3108 3107 3108 3109 3110 3110 3110 3110 3111 3111 3112 3112 3112 3112 3111 3110 3109 3108 3107 3105 3104 3102 3099 3097 3094 3091 3087 3083 3079 3074 3069 3064
3084 3086 3086 3086 3087 3089 3094 3095 3097 3099 3099 3100 3100 3101 3102 3102 3103 3103 3103 3104 3104 3105 3105 3104 3104 3103 3102 3101 3101 3099 3097 3095 3093 3091 3088 3084 3081 3077 3073 3068 3063 3058 3053
3074 3074 3075 3077 3078 3078 3081 3085 3086 3089 3091 3092 3093 3094 3094 3095 3095 3095 3096 3097 3097 3097 3098 3098 3097 3096 3095 3094 3092 3090 3088 3086 3084 3081 3078 3075 3071 3067 3063 3059 3054 3050 3045